Regional Weather Roundup
Issued by NWS

Home | Current Version | Previous Version | Graphics & Text | Print | Product List | Glossary On
Versions: 1 2 3 4 5 6 7 8 9 10 11 12 13 14 15 16 17 18 19 20 21 22 23 24 25 26 27 28 29 30 31 32 33 34 35 36 37 38 39 40 41 42 43 44 45 46 47 48 49 50
000
ASUS43 KLSX 230959
RWRMO

WEATHER SUMMARY FOR MISSOURI
NATIONAL WEATHER SERVICE SPRINGFIELD MO
500 AM CDT SAT AUG 23 2014

NOTE: "FAIR" INDICATES FEW OR NO CLOUDS BELOW 12,000 FEET WITH NO
       SIGNIFICANT WEATHER AND/OR OBSTRUCTIONS TO VISIBILITY.
       CURRENT SKY AND/OR WEATHER CONDITIONS ARE NOT AVAILABLE FOR
       CHILLICOTHE AND FARMINGTON.

MOZ001>031-035>038-043-044-053-054-231100-
...NORTHERN AND WESTERN MISSOURI...

CITY           SKY/WX    TMP DP  RH WIND       PRES   REMARKS
KANSAS CTY INT PTCLDY    79  71  76 S12       29.89S
KANSAS C DTWN  PTCLDY    81  70  69 S9        29.88S
LEE`S SUMMIT   CLEAR     77  70  79 S8        29.92R
ST JOSEPH      MOCLDY    77  72  84 S7        29.87S
KIRKSVILLE     PTCLDY    77  75  93 SE6       29.94S

$$
MOZ066>068-077>081-088>096-101>105-231100-
...SOUTHWEST MISSOURI...

CITY           SKY/WX    TMP DP  RH WIND       PRES   REMARKS
SPRINGFIELD    CLEAR     75  71  87 S6        29.99S
JOPLIN         CLEAR     79  69  71 S13       29.97R

$$
MOZ032>034-039>042-045>050-055>058-069>072-231100-
...CENTRAL MISSOURI...

CITY           SKY/WX    TMP DP  RH WIND       PRES   REMARKS
COLUMBIA       CLEAR     77  74  90 S5        29.94S
JEFFERSON CITY CLEAR     78  73  84 SE3       29.93S
ROLLA          CLEAR     74  70  87 SW8       29.97S
SEDALIA        CLEAR     78  71  79 SW9       29.94S
OSAGE BEACH    CLEAR     73  70  88 S6        29.96S

$$
MOZ051-052-059>065-231100-
...EAST CENTRAL MISSOURI...

CITY           SKY/WX    TMP DP  RH WIND       PRES   REMARKS
ST LOUIS INTL  MOCLDY    82  74  76 S3        29.93S
SPIRIT OF STL  CLEAR     75  74  96 CALM      29.92R
ST CHARLES     CLEAR     76  75  97 E3        29.91S FOG

$$
MOZ072>076-082>087-097>100-106>115-231100-
...SOUTH CENTRAL AND SOUTHEAST MISSOURI...

CITY           SKY/WX    TMP DP  RH WIND       PRES   REMARKS
CAPE GIRARDEAU CLEAR     76  73  91 CALM      29.95R
FARMINGTON     PTCLDY    75  72  88 CALM      29.99S
POPLAR BLUFF   CLEAR     76  72  87 SW3       29.95R
WEST PLAINS    CLEAR     75  71  87 W5        30.02S

$$


USA.gov is the U.S. government's official web portal to all federal, state and local government web resources and services.